Weather Roundup
Issued by NWS Springfield, MO

Home | Current Version | Previous Version | Text Only | Print | Product List | Glossary On
Versions: 1 2 3 4 5 6 7 8 9 10 11 12 13 14 15 16 17 18 19 20 21 22 23 24 25 26 27 28 29 30 31 32 33 34 35 36 37 38 39 40 41 42 43 44 45 46 47 48 49 50
000
NZUS99 KSGF 210859
HRRSGF

HOURLY WEATHER
NATIONAL WEATHER SERVICE SPRINGFIELD MO
400 AM CDT TUE APR 21 2015

......SGF CWA......

CITY           SKY/WX    TMP DP  RH WIND       PRES   REMARKS
SPRINGFIELD    CLEAR     42  33  70 SW9       29.90F
JOPLIN         CLEAR     47  37  68 SW9       29.92S
WEST PLAINS    CLEAR     41  30  65 SW5       29.93S
ROLLA          CLEAR     40  29  64 SW12      29.85S WCI  33
OSAGE BEACH    CLEAR     45  28  53 SW6       29.87S

......SURROUNDING SGF CWA......

CITY           SKY/WX    TMP DP  RH WIND       PRES   REMARKS
CHANUTE        MOCLDY    47  39  74 SW7       29.91R
PARSONS        PTCLDY    43  41  93 CALM      29.92S
COFFEYVILLE    CLEAR     46  37  71 S7        29.92R
EMPORIA        PTCLDY    48  37  65 SW13      29.88S
SILOAM SPRINGS PTCLDY    45  32  61 S3        29.97S
HARRISON AR    PTCLDY    46  33  60 CALM      29.95S
NEAR YELLVILLE PTCLDY    45 N/A N/A SW3       29.93S

......KANSAS AND MISSOURI......

CITY           SKY/WX    TMP DP  RH WIND       PRES   REMARKS
KANSAS CTY INT MOCLDY    41  31  67 W8        29.85R
DOWNTOWN KC    MOCLDY    48  32  53 W7        29.86R
COLUMBIA       CLEAR     45  31  58 W9        29.83S
SEDALIA        CLEAR     46  33  60 SW13      29.85F
ST JOSEPH      CLOUDY    46  31  55 W9        29.84F
ST LOUIS       PTCLDY    49  27  42 SW13      29.82S
SPIRIT OF STL  CLEAR     46  28  49 SW12      29.82S
KIRKSVILLE     MOCLDY    44  27  51 W8        29.79R
WICHITA        MOCLDY    49  39  68 SW8       29.91S
TOPEKA         MOCLDY    44  33  65 W5        29.88S
OLATHE         MOCLDY    48  32  53 W7        29.85F

......TENNESSEE......

CITY           SKY/WX    TMP DP  RH WIND       PRES   REMARKS
MEMPHIS        CLEAR     47  37  68 SW3       29.99R
NASHVILLE      PTCLDY    45  42  89 CALM      29.93R

......ARKANSAS.......

CITY           SKY/WX    TMP DP  RH WIND       PRES   REMARKS
FAYETTEVILLE   MOCLDY    42  38  85 S8        29.97S
FT SMITH       PTCLDY    45  41  86 E5        29.98S
LITTLE ROCK    CLEAR     48  41  76 W8        30.01R

......OKLAHOMA.......

CITY           SKY/WX    TMP DP  RH WIND       PRES   REMARKS
TULSA          MOCLDY    50  38  63 S7        29.94S
PONCA CITY     CLOUDY    48  42  80 CALM      29.95R
MCALESTER      MOCLDY    45  43  93 CALM      29.99F
OKLAHOMA CITY  CLOUDY    53  42  66 S10       29.94F

......IOWA............

CITY           SKY/WX    TMP DP  RH WIND       PRES   REMARKS
DES MOINES     CLEAR     39  21  48 W8        29.75R WCI  33
QUAD CITIES    CLEAR     39  30  70 SW10      29.67S WCI  32

......ILLINOIS........

CITY           SKY/WX    TMP DP  RH WIND       PRES   REMARKS
QUINCY         CLEAR     43  27  53 W9        29.76S
CHICAGO        CLEAR     40  31  70 W14       29.59S WCI  32




USA.gov is the U.S. government's official web portal to all federal, state and local government web resources and services.